When you browse on this site, cookies collect data to enhance your experience and personalize the content and advertising you see.
Visit our Privacy Policy to learn more. By continuing to use the site, you agree to this use of cookies and data.
  • în România
  • Lista ţărilor
  • Pe 7 zile
  • Temperatura apei
  • Hartă satelitară
  • Meteo pe hartă
  • Widget-uri
  • user-avatar
    Intrare

    Meteo pe oră la Pavskoe

    Astăzi, 19 Februarie, Marţi

    Timp Temperatura Precipitaţii Vânt Presiune Umiditate
    00:00 -9°C° 0 mm 3 m/s 751 mmHg 83%
    01:00 -9°C° 0 mm 4 m/s 750 mmHg 79%
    02:00 -8°C° 0 mm 5 m/s 749 mmHg 76%
    03:00 -8°C° 0 mm 5 m/s 748 mmHg 77%
    04:00 -8°C° 0 mm 5 m/s 747 mmHg 77%
    05:00 -8°C° 0 mm 5 m/s 746 mmHg 78%
    06:00 -8°C° 0 mm 5 m/s 745 mmHg 79%
    07:00 -7°C° 0 mm 4 m/s 745 mmHg 80%
    08:00 -7°C° 0 mm 4 m/s 744 mmHg 80%
    09:00 -4°C° 0 mm 4 m/s 744 mmHg 81%
    10:00 -4°C° 0 mm 5 m/s 744 mmHg 82%
    11:00 -2°C° 0 mm 5 m/s 743 mmHg 83%
    12:00 -1°C° 0 mm 5 m/s 743 mmHg 85%
    13:00 -1°C° 0 mm 4 m/s 743 mmHg 86%
    14:00 -1°C° 0 mm 4 m/s 742 mmHg 88%
    15:00 -1°C° 0 mm 4 m/s 742 mmHg 88%
    16:00 -1°C° 0 mm 4 m/s 742 mmHg 89%
    17:00 -1°C° 0 mm 4 m/s 741 mmHg 89%
    18:00 -1°C° 0 mm 4 m/s 741 mmHg 90%
    19:00 0°C° 0 mm 3 m/s 740 mmHg 90%
    20:00 0°C° 0 mm 3 m/s 740 mmHg 90%
    21:00 0°C° 0 mm 3 m/s 739 mmHg 90%
    22:00 -2°C° 0 mm 4 m/s 738 mmHg 90%
    23:00 -2°C° 0 mm 4 m/s 737 mmHg 89%

    Mâine, 20 Februarie, Miercuri

    Timp Temperatura Precipitaţii Vânt Presiune Umiditate
    00:00 -1°C° 0.1 mm 4 m/s 737 mmHg 89%
    01:00 -1°C° 0.1 mm 4 m/s 736 mmHg 90%
    02:00 -1°C° 0.1 mm 4 m/s 735 mmHg 90%
    03:00 -1°C° 0.1 mm 4 m/s 735 mmHg 90%
    04:00 -1°C° 0.1 mm 4 m/s 734 mmHg 90%
    05:00 -1°C° 0.1 mm 4 m/s 733 mmHg 89%
    06:00 -1°C° 0.2 mm 4 m/s 733 mmHg 90%
    07:00 -1°C° 0.2 mm 4 m/s 733 mmHg 92%
    08:00 0°C° 0.2 mm 4 m/s 733 mmHg 93%
    09:00 0°C° 0 mm 4 m/s 733 mmHg 92%
    10:00 0°C° 0 mm 4 m/s 733 mmHg 92%
    11:00 0°C° 0 mm 4 m/s 733 mmHg 91%
    12:00 0°C° 0.1 mm 4 m/s 733 mmHg 91%
    13:00 0°C° 0.1 mm 4 m/s 733 mmHg 91%
    14:00 0°C° 0.1 mm 4 m/s 733 mmHg 92%
    15:00 +1°C° 0.1 mm 3 m/s 733 mmHg 92%
    16:00 +1°C° 0.1 mm 3 m/s 733 mmHg 92%
    17:00 0°C° 0.1 mm 3 m/s 732 mmHg 93%
    18:00 0°C° 0.2 mm 3 m/s 732 mmHg 93%
    19:00 0°C° 0.2 mm 3 m/s 732 mmHg 93%
    20:00 0°C° 0.2 mm 3 m/s 732 mmHg 93%
    21:00 0°C° 0.1 mm 3 m/s 732 mmHg 93%
    22:00 +1°C° 0.1 mm 2 m/s 732 mmHg 94%
    23:00 +1°C° 0.1 mm 2 m/s 732 mmHg 95%

    Poimâine, 21 Februarie, Joi

    Timp Temperatura Precipitaţii Vânt Presiune Umiditate
    00:00 +1°C° 0.3 mm 2 m/s 732 mmHg 95%
    01:00 +1°C° 0.3 mm 2 m/s 732 mmHg 95%
    02:00 +1°C° 0.3 mm 2 m/s 732 mmHg 95%
    03:00 -1°C° 0.5 mm 2 m/s 732 mmHg 95%
    04:00 -1°C° 0.5 mm 3 m/s 732 mmHg 95%
    05:00 -1°C° 0.5 mm 3 m/s 733 mmHg 95%
    06:00 -2°C° 0.6 mm 3 m/s 733 mmHg 94%
    07:00 -4°C° 0.6 mm 4 m/s 734 mmHg 92%
    08:00 -6°C° 0.6 mm 5 m/s 735 mmHg 91%
    09:00 -6°C° 0.2 mm 5 m/s 736 mmHg 89%
    10:00 -8°C° 0.2 mm 6 m/s 737 mmHg 88%
    11:00 -8°C° 0.2 mm 6 m/s 738 mmHg 86%
    12:00 -9°C° 0.1 mm 6 m/s 739 mmHg 84%
    13:00 -10°C° 0.1 mm 6 m/s 740 mmHg 82%
    14:00 -10°C° 0.1 mm 6 m/s 741 mmHg 81%
    15:00 -11°C° 0.1 mm 6 m/s 742 mmHg 80%
    16:00 -11°C° 0.1 mm 6 m/s 743 mmHg 80%
    17:00 -12°C° 0.1 mm 6 m/s 745 mmHg 79%
    18:00 -12°C° 0 mm 6 m/s 745 mmHg 78%
    19:00 -14°C° 0 mm 6 m/s 746 mmHg 78%
    20:00 -14°C° 0 mm 6 m/s 747 mmHg 77%
    21:00 -14°C° 0 mm 6 m/s 748 mmHg 77%
    22:00 -15°C° 0 mm 6 m/s 749 mmHg 77%
    23:00 -15°C° 0 mm 6 m/s 749 mmHg 78%

    22 Februarie, Vineri

    Timp Temperatura Precipitaţii Vânt Presiune Umiditate
    00:00 -15°C° 0 mm 6 m/s 750 mmHg 78%
    01:00 -15°C° 0 mm 5 m/s 750 mmHg 79%
    02:00 -15°C° 0 mm 5 m/s 751 mmHg 80%
    03:00 -15°C° 0 mm 5 m/s 752 mmHg 80%
    04:00 -17°C° 0 mm 5 m/s 752 mmHg 81%
    05:00 -17°C° 0 mm 5 m/s 752 mmHg 81%
    06:00 -17°C° 0 mm 5 m/s 753 mmHg 82%
    07:00 -17°C° 0 mm 5 m/s 753 mmHg 83%
    08:00 -17°C° 0 mm 5 m/s 754 mmHg 83%
    09:00 -15°C° 0 mm 5 m/s 754 mmHg 81%
    10:00 -15°C° 0 mm 5 m/s 754 mmHg 78%
    11:00 -14°C° 0 mm 5 m/s 754 mmHg 76%
    12:00 -14°C° 0 mm 6 m/s 754 mmHg 74%
    13:00 -14°C° 0 mm 6 m/s 755 mmHg 72%
    14:00 -14°C° 0 mm 6 m/s 755 mmHg 69%
    15:00 -15°C° 0 mm 6 m/s 756 mmHg 71%
    16:00 -15°C° 0 mm 6 m/s 756 mmHg 73%
    17:00 -16°C° 0 mm 6 m/s 757 mmHg 75%
    18:00 -15°C° 0 mm 5 m/s 757 mmHg 76%
    19:00 -15°C° 0 mm 5 m/s 758 mmHg 77%
    20:00 -15°C° 0 mm 5 m/s 758 mmHg 78%
    21:00 -15°C° 0 mm 5 m/s 759 mmHg 79%
    22:00 -17°C° 0 mm 5 m/s 759 mmHg 81%
    23:00 -16°C° 0 mm 4 m/s 759 mmHg 82%

    23 Februarie, Sâmbătă

    Timp Temperatura Precipitaţii Vânt Presiune Umiditate
    00:00 -16°C° 0 mm 4 m/s 760 mmHg 84%
    01:00 -16°C° 0 mm 4 m/s 760 mmHg 85%
    02:00 -16°C° 0 mm 4 m/s 760 mmHg 87%
    03:00 -17°C° 0 mm 4 m/s 760 mmHg 88%
    04:00 -17°C° 0 mm 4 m/s 760 mmHg 90%
    05:00 -16°C° 0 mm 3 m/s 760 mmHg 91%
    06:00 -17°C° 0 mm 3 m/s 761 mmHg 91%
    07:00 -17°C° 0 mm 3 m/s 761 mmHg 91%
    08:00 -17°C° 0 mm 3 m/s 761 mmHg 91%
    09:00 -15°C° 0 mm 2 m/s 761 mmHg 89%
    10:00 -13°C° 0 mm 2 m/s 761 mmHg 86%
    11:00 -12°C° 0 mm 2 m/s 762 mmHg 83%
    12:00 -10°C° 0 mm 2 m/s 761 mmHg 82%
    13:00 -9°C° 0 mm 2 m/s 761 mmHg 81%
    14:00 -9°C° 0 mm 2 m/s 761 mmHg 79%
    15:00 -9°C° 0 mm 2 m/s 761 mmHg 83%
    16:00 -9°C° 0 mm 1 m/s 761 mmHg 86%
    17:00 -9°C° 0 mm 1 m/s 761 mmHg 90%
    18:00 -9°C° 0 mm 1 m/s 761 mmHg 90%
    19:00 -10°C° 0 mm 1 m/s 761 mmHg 90%
    20:00 -10°C° 0 mm 1 m/s 761 mmHg 90%
    21:00 -12°C° 0 mm 2 m/s 761 mmHg 89%
    22:00 -10°C° 0 mm 2 m/s 761 mmHg 88%
    23:00 -10°C° 0 mm 2 m/s 762 mmHg 87%

    24 Februarie, Duminică

    Timp Temperatura Precipitaţii Vânt Presiune Umiditate
    00:00 -10°C° 0 mm 2 m/s 761 mmHg 89%
    01:00 -10°C° 0 mm 2 m/s 761 mmHg 91%
    02:00 -12°C° 0 mm 2 m/s 761 mmHg 94%
    03:00 -12°C° 0 mm 2 m/s 761 mmHg 94%
    04:00 -12°C° 0 mm 2 m/s 761 mmHg 95%
    05:00 -12°C° 0 mm 2 m/s 761 mmHg 96%
    06:00 -10°C° 0 mm 2 m/s 761 mmHg 96%
    07:00 -10°C° 0 mm 2 m/s 761 mmHg 95%
    08:00 -9°C° 0 mm 2 m/s 761 mmHg 95%
    09:00 -8°C° 0 mm 2 m/s 761 mmHg 93%
    10:00 -7°C° 0 mm 2 m/s 761 mmHg 91%
    11:00 -7°C° 0 mm 3 m/s 760 mmHg 90%
    12:00 -6°C° 0 mm 3 m/s 760 mmHg 90%
    13:00 -5°C° 0 mm 3 m/s 760 mmHg 90%
    14:00 -5°C° 0 mm 3 m/s 759 mmHg 90%
    15:00 -5°C° 0 mm 3 m/s 759 mmHg 90%
    16:00 -4°C° 0 mm 3 m/s 758 mmHg 91%
    17:00 -4°C° 0 mm 3 m/s 758 mmHg 92%
    18:00 -4°C° 0.1 mm 3 m/s 758 mmHg 92%
    19:00 -4°C° 0.1 mm 3 m/s 757 mmHg 93%
    20:00 -2°C° 0.1 mm 3 m/s 757 mmHg 93%
    21:00 -3°C° 0.1 mm 4 m/s 756 mmHg 93%
    22:00 -3°C° 0.1 mm 4 m/s 755 mmHg 93%
    23:00 -3°C° 0.1 mm 4 m/s 754 mmHg 93%
    Arată mai mult